Location: Kott?ru
(16.6209°N, 80.6208°E)
Time: 13:27:47
(UTC+00:00)

OAO 1 - Pass Details

Date: 18 September 2020
Orbit: 774 x 784 km, 35.0° (Epoch: 30 October)

Event Time Altitude Azimuth Distance (km) Brightness Sun altitude
Rises 14:05:34 0° 235° (SW) 3,234 8.4 -22.0°
Reaches altitude 10° 14:08:02 10° 235° (SW) 2,306 7.6 -22.6°
Maximum altitude 14:13:30 86° 147° (SSE) 774 4.4 -23.9°
Enters shadow 14:14:30 61° 63° (ENE) 870 4.5 -24.1°
